TimeEST,TemperatureF,Dew PointF,Humidity,Sea Level PressureIn,VisibilityMPH,Wind Direction,Wind SpeedMPH,Gust SpeedMPH,PrecipitationIn,Events,Conditions,WindDirDegrees,DateUTC
12:56 AM,51.8,50.0,94,30.23,8.0,Calm,Calm,-,N/A,,Partly Cloudy,0,2012-12-05 05:56:00
1:55 AM,51.8,51.8,100,30.22,4.0,Calm,Calm,-,N/A,,Clear,0,2012-12-05 06:55:00
2:55 AM,50.0,48.2,94,30.22,6.0,Calm,Calm,-,N/A,,Partly Cloudy,0,2012-12-05 07:55:00
3:55 AM,50.0,48.2,94,30.20,5.0,West,1.2,-,N/A,,Clear,280,2012-12-05 08:55:00
5:00 AM,50.0,48.2,94,30.17,1.8,Calm,Calm,-,N/A,,Clear,0,2012-12-05 10:00:00
5:24 AM,48.2,48.2,100,30.17,3.0,Calm,Calm,-,N/A,,Clear,0,2012-12-05 10:24:00
5:45 AM,48.2,48.2,100,30.17,1.8,Calm,Calm,-,N/A,,Scattered Clouds,0,2012-12-05 10:45:00
6:01 AM,48.2,48.2,100,30.17,2.5,West,1.2,-,N/A,,Scattered Clouds,280,2012-12-05 11:01:00
6:59 AM,50.0,48.2,94,30.19,7.0,Calm,Calm,-,N/A,Fog,Shallow Fog,0,2012-12-05 11:59:00
7:55 AM,50.4,50.0,99,30.22,10.0,Calm,Calm,-,0.01,,Clear,0,2012-12-05 12:55:00
9:55 AM,63.1,60.3,90,30.24,10.0,Calm,Calm,-,N/A,,Clear,0,2012-12-05 14:55:00
10:55 AM,69.8,56.8,63,30.22,10.0,Calm,Calm,-,N/A,,Clear,0,2012-12-05 15:55:00
11:55 AM,72.7,55.8,55,30.19,10.0,Calm,Calm,-,N/A,,Clear,0,2012-12-05 16:55:00
12:55 PM,74.5,53.1,47,30.16,10.0,Variable,4.6,-,N/A,,Clear,0,2012-12-05 17:55:00
1:55 PM,76.5,49.8,39,30.12,10.0,WNW,3.5,-,N/A,,Clear,290,2012-12-05 18:55:00
2:55 PM,75.9,48.6,38,30.10,10.0,Variable,3.5,-,N/A,,Clear,0,2012-12-05 19:55:00
3:55 PM,73.6,56.5,55,30.09,10.0,SE,5.8,-,N/A,,Clear,140,2012-12-05 20:55:00
4:55 PM,69.4,57.0,65,30.10,10.0,SSE,5.8,-,N/A,,Clear,160,2012-12-05 21:55:00
6:55 PM,59.4,54.3,83,30.12,10.0,Calm,Calm,-,N/A,,Clear,0,2012-12-05 23:55:00
7:55 PM,58.5,54.3,86,30.12,10.0,Calm,Calm,-,N/A,,Scattered Clouds,0,2012-12-06 00:55:00
8:55 PM,58.8,54.1,84,30.13,10.0,Calm,Calm,-,N/A,,Mostly Cloudy,0,2012-12-06 01:55:00
9:55 PM,59.5,55.0,85,30.13,10.0,Calm,Calm,-,N/A,,Overcast,0,2012-12-06 02:55:00
10:55 PM,58.3,54.7,88,30.12,10.0,Calm,Calm,-,N/A,,Overcast,0,2012-12-06 03:55:00
11:55 PM,59.2,55.0,86,30.12,10.0,Calm,Calm,-,N/A,,Mostly Cloudy,0,2012-12-06 04:55:00